Location: Nied?wied?
(53.3665°N, 14.8184°E)
Time: 23:28:41
(UTC+00:00)

Meteor 1-14 Rocket - Pass Details

Date: 03 March 2021
Orbit: 834 x 918 km, 81.3° (Epoch: 12 April)

Event Time Altitude Azimuth Distance (km) Brightness Sun altitude
Rises 17:40:14 0° 172° (S) 3,394 7.2 -9.4°
Reaches altitude 10° 17:42:43 10° 166° (SSE) 2,455 6.5 -9.7°
Maximum altitude 17:48:01 47° 94° (E) 1,095 4.4 -10.5°
Drops below altitude 10° 17:53:18 10° 22° (NNE) 2,460 6.4 -11.3°
Sets 17:55:47 0° 17° (NNE) 3,400 7.2 -11.7°
